Regional Weather Roundup
Issued by NWS

Home | Current Version | Previous Version | Graphics & Text | Print | Product List | Glossary On
Versions: 1 2 3 4 5 6 7 8 9 10 11 12 13 14 15 16 17 18 19 20 21 22 23 24 25 26 27 28 29 30 31 32 33 34 35 36 37 38 39 40 41 42 43 44 45 46 47 48 49 50
000
ASUS43 KDMX 031107
RWRIA

WEATHER ROUNDUP FOR IOWA
NATIONAL WEATHER SERVICE DES MOINES IA
600 AM CDT THU SEP 03 2015

NOTE: "FAIR" INDICATES FEW OR NO CLOUDS BELOW 12,000 FEET WITH NO
SIGNIFICANT WEATHER AND/OR OBSTRUCTIONS TO VISIBILITY.

* - THESE STATIONS ARE NOT NWS STATIONS...THUS NOT UNDER NWS
QUALITY CONTROL.  THEY ALSO DO NOT REPORT WEATHER SUCH
AS PRECIPITATION OR FOG.

IAZ001>003-012>014-020>022-031>034-043>046-031200-
   NORTHWEST IOWA

CITY           SKY/WX    TMP DP  RH WIND       PRES   REMARKS
CARROLL *      CLEAR     70  70 100 CALM      29.88R
CHEROKEE *     CLEAR     68  68 100 S3        29.86S
DENISON *      CLEAR     72  68  88 S10       29.85S
LE MARS *      CLEAR     70  68  94 S3        29.84S
ORANGE CITY *  CLEAR     70  66  88 S6        29.85S
SHELDON *      CLEAR     68  66  94 SE6       29.84S
SIOUX CITY     CLEAR     69  65  86 SE8       29.83S
SPENCER        CLEAR     66  64  93 E6        29.87S FOG
STORM LAKE *   CLEAR     68  68 100 S8        29.88S
$$

IAZ055>058-069>071-079>083-090>094-031200-
   SOUTHWEST IOWA

CITY           SKY/WX    TMP DP  RH WIND       PRES   REMARKS
ATLANTIC *     CLOUDY    73  70  88 S6        29.89R
AUDUBON *      PTCLDY    72  66  83 S3        29.90S
CLARINDA *     CLOUDY    72  70  94 S6        29.91S
COUNCIL BLFS * CLEAR     70  68  94 SE9       29.86S
CRESTON *      MOCLDY    72  70  94 S10       29.93S
LAMONI         PTCLDY    71  68  90 S7        29.93S
RED OAK *      CLEAR     72  70  94 S7        29.88S
SHENANDOAH *   MOCLDY    73  70  88 S7        29.88S
$$

IAZ047>049-059>061-072>074-084-031200-
   CENTRAL IOWA

CITY           SKY/WX    TMP DP  RH WIND       PRES   REMARKS
AMES           CLEAR     68  67  96 SE6       29.90S FOG
ANKENY *       CLEAR     70  70 100 CALM      29.90S
CHARITON *     PTCLDY    72  68  88 S6        29.93R
DES MOINES     PTCLDY    73  68  84 S7        29.90S
GRINNELL*      PTCLDY    72  68  88 S7        29.93S
KNOXVILLE *    CLOUDY    72  68  88 S7        29.91S
MARSHALLTOWN   PTCLDY    68  67  96 SE5       29.91S
PELLA *          N/A     72  72 100 S5        29.93S
PERRY *          N/A     68  68 100 SE3       29.89S FOG
$$

IAZ004>006-015-016-023>025-035-036-031200-
   NORTH CENTRAL IOWA

CITY           SKY/WX    TMP DP  RH WIND       PRES   REMARKS
ALGONA *       CLEAR     70  68  94 S7        29.89S
CLARION *      CLEAR     68  66  94 S7        29.89S
ESTHERVILLE    CLEAR     65  65 100 S7        29.87S FOG
FORT DODGE *   CLEAR     70  64  83 SE3       29.90R
MASON CITY     CLEAR     65  65 100 SE5       29.92S FOG
FOREST CITY *  FOG       63  63 100 E3        29.90S VSB 3/4
IOWA FALLS *     N/A     68  66  94 SE3       29.92S FOG
$$

IAZ007>011-017>019-026>030-037>042-050>054-066-031200-
   NORTHEAST IOWA

CITY           SKY/WX    TMP DP  RH WIND       PRES   REMARKS
CEDAR RAPIDS   PTCLDY    69  69 100 S5        29.93S
CHARLES CITY * CLEAR     68  68 100 SE6       29.92F FOG
CLINTON *      CLEAR     70  66  88 S3        29.97S
DECORAH *      CLOUDY    70  68  94 S3        29.92S
DUBUQUE        MOCLDY    68  66  93 SW6       29.95S FOG
MONTICELLO *   CLEAR     68  66  94 CALM      29.94S
OELWEIN *        N/A     68  68 100 S5        29.94R
WATERLOO       CLEAR     69  67  93 S3        29.91R
$$

IAZ064-065-067-068-078-031200-
   EAST CENTRAL IOWA

CITY           SKY/WX    TMP DP  RH WIND       PRES   REMARKS
DAVENPORT      CLEAR     72  68  87 S7        29.95S
IOWA CITY      PTCLDY    68  66  93 CALM      29.95R
MT. PLEASANT * CLEAR     70  66  88 S5        29.95S
MUSCATINE *    CLOUDY    68  64  88 CALM      29.95S
QUAD CITIES    PTCLDY    72  67  84 CALM      29.95R
$$

IAZ062-063-075>077-085>089-095>099-031200-
   SOUTHEAST IOWA

CITY           SKY/WX    TMP DP  RH WIND       PRES   REMARKS
BURLINGTON     CLOUDY    71  69  93 S3        29.95R
FAIRFIELD *    PTCLDY    70  66  88 S5        29.94S
FORT MADISON * CLEAR     70  70 100 S3        29.96S
KEOKUK *       CLEAR     73  68  83 S8        29.94F
OSKALOOSA *      N/A     70  68  94 S6        29.93S
CENTERVILLE *  PTCLDY    68  68 100 S3        29.96R
OTTUMWA        CLEAR     70  69  97 S7        29.92S
WASHINGTON *     N/A    N/A N/A N/A MISG        N/A
$$

ABBREVIATIONS USED IN REMARKS
   TC - TEMPERATURES IN CELSIUS
  WCI - WIND CHILL INDEX
   HX - HEAT INDEX
  VSB - VISIBILITY
$$




USA.gov is the U.S. government's official web portal to all federal, state and local government web resources and services.